Weather History for Stanton, MN

Change the Weather History Date:

Tuesday, May 27, 2014

  Actual Average (KLVN) Record (KLVN)
Temperature  
Mean Temperature 70 °F -  
Max Temperature 77 °F 74 °F 95 °F (1969)
Min Temperature 64 °F 51 °F 38 °F (1971)
Cooling Degree Days 5    
Growing Degree Days 20 (Base 50)    
Moisture  
Dew Point 64 °F    
Average Humidity 85    
Maximum Humidity 93    
Minimum Humidity 68    
Precipitation  
Precipitation 0.01 in - - ()
Sea Level Pressure  
Sea Level Pressure 29.90 in    
Wind  
Wind Speed 5 mph (North)    
Max Wind Speed 18 mph    
Max Gust Speed 22 mph    
Visibility 8 miles    
Events Rain , Thunderstorm    
Averages and records for this station are not official NWS values.
T = Trace of Precipitation, MM = Missing Value Source: NWS Daily Summary

Daily Weather History Graph

Daily Weather History Graph

Search for Another Location

Airport:

Trip Planner

Search our weather history database for the weather conditions in past years. The results will help you decide how hot, cold, wet, or windy it might be!

Date:

Astronomy

May. 27, 2014 Rise Set
Actual Time 5:33 AM CDT 8:45 PM CDT
Civil Twilight 4:58 AM CDT 9:20 PM CDT
Nautical Twilight 4:12 AM CDT 10:06 PM CDT
Astronomical Twilight 3:17 AM CDT 11:02 PM CDT
Moon 5:00 AM CDT (5/27) 7:44 PM CDT (5/27)
Length of Visible Light 16h 22m
Length of Day
15h 11m
Waning Crescent, 1% of the Moon is Illuminated
May 27
Waning Crescent
May 28
New
Jun 5
First Quarter
Jun 12
Full
Jun 19
Last Quarter

Hourly Weather History & Observations

Time (CDT) Temp. Dew Point Humidity Pressure Visibility Wind Dir Wind Speed Gust Speed Precip Events Conditions
12:12 AM 67.1 °F 64.0 °F 90% 29.88 in 10.0 mi Calm Calm - N/A   Mostly Cloudy
12:32 AM 67.1 °F 63.9 °F 89% 29.87 in 10.0 mi Calm Calm - N/A   Scattered Clouds
1:12 AM 67.3 °F 63.7 °F 88% 29.88 in 10.0 mi SW 5.8 mph - N/A   Overcast
1:32 AM 67.3 °F 63.9 °F 89% 29.88 in 5.0 mi SSW 4.6 mph - 0.01 in Rain Rain
1:52 AM 66.9 °F 63.9 °F 90% 29.88 in 7.0 mi SW 4.6 mph - 0.01 in   Overcast
2:12 AM 67.1 °F 64.0 °F 90% 29.88 in 7.0 mi West 3.5 mph - N/A   Scattered Clouds
2:32 AM 66.4 °F 63.7 °F 91% 29.86 in 5.0 mi SW 3.5 mph - N/A   Mostly Cloudy
2:53 AM 65.8 °F 63.5 °F 92% 29.86 in 4.0 mi Calm Calm - N/A   Scattered Clouds
3:12 AM 65.7 °F 63.3 °F 92% 29.86 in 3.0 mi Calm Calm - N/A   Scattered Clouds
3:32 AM 65.7 °F 63.5 °F 93% 29.86 in 3.0 mi Calm Calm - N/A   Scattered Clouds
3:53 AM 64.8 °F 62.4 °F 92% 29.86 in 2.0 mi Calm Calm - N/A   Mostly Cloudy
4:12 AM 64.8 °F 62.6 °F 93% 29.87 in 2.5 mi Calm Calm - N/A   Overcast
4:32 AM 65.3 °F 63.1 °F 93% 29.88 in 3.0 mi SW 3.5 mph - N/A   Overcast
4:53 AM 65.7 °F 63.5 °F 93% 29.86 in 3.0 mi Calm Calm - N/A   Overcast
5:12 AM 65.5 °F 63.5 °F 93% 29.87 in 3.0 mi Calm Calm - N/A   Overcast
5:32 AM 65.7 °F 63.5 °F 93% 29.88 in 3.0 mi Calm Calm - N/A   Overcast
5:53 AM 65.3 °F 63.1 °F 93% 29.88 in 1.8 mi Calm Calm - N/A   Overcast
6:12 AM 65.7 °F 63.5 °F 93% 29.88 in 1.8 mi Calm Calm - N/A   Overcast
6:32 AM 65.8 °F 63.7 °F 93% 29.89 in 1.8 mi Calm Calm - N/A   Overcast
6:53 AM 66.4 °F 64.4 °F 93% 29.89 in 1.8 mi Calm Calm - N/A   Overcast
7:12 AM 66.4 °F 64.4 °F 93% 29.89 in 2.0 mi Calm Calm - N/A   Overcast
7:32 AM 66.6 °F 64.4 °F 93% 29.89 in 2.0 mi Calm Calm - N/A   Overcast
7:53 AM 67.3 °F 65.1 °F 93% 29.89 in 2.5 mi Calm Calm - N/A   Overcast
8:12 AM 68.0 °F 65.3 °F 91% 29.89 in 3.0 mi Calm Calm - N/A   Overcast
8:32 AM 68.4 °F 65.3 °F 90% 29.89 in 4.0 mi Calm Calm - N/A   Overcast
8:53 AM 69.1 °F 65.1 °F 87% 29.90 in 5.0 mi Calm Calm - N/A   Overcast
9:12 AM 69.8 °F 64.8 °F 84% 29.89 in 7.0 mi NE 3.5 mph - N/A   Overcast
9:32 AM 70.7 °F 64.9 °F 82% 29.89 in 7.0 mi Calm Calm - N/A   Overcast
9:53 AM 70.7 °F 65.1 °F 82% 29.89 in 7.0 mi North 4.6 mph - N/A   Overcast
10:12 AM 70.9 °F 65.1 °F 82% 29.89 in 7.0 mi North 5.8 mph - N/A   Overcast
10:32 AM 71.1 °F 65.5 °F 82% 29.89 in 10.0 mi North 5.8 mph - N/A   Overcast
10:53 AM 72.7 °F 65.7 °F 79% 29.90 in 10.0 mi North 8.1 mph - N/A   Overcast
11:12 AM 72.3 °F 65.1 °F 78% 29.90 in 10.0 mi North 6.9 mph - N/A   Mostly Cloudy
11:32 AM 73.4 °F 64.9 °F 75% 29.90 in 10.0 mi North 9.2 mph - N/A   Overcast
11:53 AM 73.8 °F 65.5 °F 75% 29.90 in 10.0 mi North 12.7 mph - N/A   Overcast
12:12 PM 74.1 °F 66.2 °F 76% 29.90 in 10.0 mi NNW 12.7 mph 17.3 mph N/A   Overcast
12:32 PM 73.0 °F 65.3 °F 77% 29.90 in 10.0 mi North 6.9 mph 10.4 mph N/A   Overcast
12:51 PM 72.7 °F 65.5 °F 78% 29.90 in 10.0 mi NNW 8.1 mph - N/A   Overcast
1:12 PM 73.9 °F 65.3 °F 74% 29.89 in 10.0 mi North 8.1 mph - N/A Thunderstorm Overcast
1:32 PM 74.5 °F 64.8 °F 72% 29.89 in 10.0 mi North 8.1 mph - N/A   Overcast
1:52 PM 73.6 °F 65.3 °F 75% 29.89 in 10.0 mi NNW 15.0 mph - N/A Thunderstorm Overcast
2:12 PM 74.7 °F 65.3 °F 73% 29.88 in 10.0 mi North 12.7 mph - N/A   Overcast
2:32 PM 76.1 °F 65.1 °F 69% 29.88 in 10.0 mi North 13.8 mph 19.6 mph N/A   Mostly Cloudy
2:52 PM 75.6 °F 64.4 °F 68% 29.89 in 10.0 mi North 15.0 mph - N/A Thunderstorm Thunderstorm
3:12 PM 74.3 °F 64.4 °F 71% 29.89 in 10.0 mi North 18.4 mph 21.9 mph N/A Thunderstorm Overcast
3:32 PM 72.5 °F 64.4 °F 76% 29.90 in 10.0 mi North 13.8 mph - N/A   Overcast
4:12 PM 70.7 °F 63.7 °F 78% 29.90 in 10.0 mi North 15.0 mph 18.4 mph N/A   Overcast
4:32 PM 69.4 °F 63.3 °F 81% 29.90 in 10.0 mi North 15.0 mph - N/A   Overcast
4:52 PM 68.4 °F 62.6 °F 82% 29.91 in 10.0 mi North 16.1 mph 20.7 mph N/A   Overcast
5:12 PM 66.9 °F 61.7 °F 83% 29.91 in 10.0 mi North 15.0 mph - N/A   Overcast
5:32 PM 67.1 °F 62.1 °F 84% 29.90 in 10.0 mi North 11.5 mph - N/A   Overcast
5:52 PM 66.6 °F 62.8 °F 88% 29.91 in 10.0 mi North 9.2 mph - N/A Rain Light Rain
6:12 PM 67.1 °F 63.5 °F 88% 29.90 in 10.0 mi NNE 12.7 mph - N/A Rain Light Rain
6:32 PM 68.0 °F 63.9 °F 87% 29.90 in 10.0 mi NNE 12.7 mph - N/A   Mostly Cloudy
6:52 PM 68.0 °F 63.7 °F 86% 29.90 in 10.0 mi NNE 10.4 mph - N/A Rain Light Rain
7:12 PM 68.0 °F 63.0 °F 84% 29.90 in 10.0 mi NE 10.4 mph 17.3 mph N/A   Overcast
7:32 PM 68.2 °F 63.1 °F 84% 29.91 in 10.0 mi NE 11.5 mph - N/A   Overcast
7:52 PM 68.0 °F 62.8 °F 83% 29.92 in 10.0 mi NNE 9.2 mph - N/A   Overcast
8:12 PM 68.0 °F 62.8 °F 83% 29.93 in 10.0 mi NE 9.2 mph - N/A   Overcast
8:32 PM 68.0 °F 62.6 °F 83% 29.93 in 10.0 mi NE 9.2 mph - N/A   Overcast
8:52 PM 67.6 °F 62.2 °F 83% 29.94 in 10.0 mi NNE 8.1 mph - N/A   Overcast
9:12 PM 67.5 °F 62.1 °F 83% 29.94 in 10.0 mi NNE 10.4 mph - N/A   Overcast
9:32 PM 67.3 °F 61.7 °F 82% 29.94 in 10.0 mi NNE 9.2 mph - N/A   Overcast
9:53 PM 67.1 °F 61.7 °F 83% 29.95 in 10.0 mi NNE 10.4 mph - N/A   Overcast
10:12 PM 66.7 °F 60.8 °F 81% 29.95 in 10.0 mi NNE 11.5 mph - N/A   Overcast
10:32 PM 65.8 °F 61.3 °F 85% 29.96 in 10.0 mi North 9.2 mph - N/A   Overcast
10:52 PM 65.3 °F 61.2 °F 86% 29.96 in 10.0 mi North 8.1 mph - N/A   Overcast
11:12 PM 65.3 °F 61.2 °F 86% 29.97 in 10.0 mi NNE 8.1 mph - N/A   Mostly Cloudy
11:32 PM 64.8 °F 61.2 °F 88% 29.97 in 10.0 mi NNE 5.8 mph - N/A   Scattered Clouds
11:52 PM 64.4 °F 61.0 °F 89% 29.96 in 10.0 mi NNE 5.8 mph - N/A   Clear